Location: Morgantown
(40.9734°N, 80.6323°W)
Time: 12:24:15
(UTC+00:00)

ITUPSAT 1 - Visible Passes

Search period start: 21 September 2021 00:00
Search period end: 01 October 2021 00:00
Orbit: 701 x 713 km, 98.6° (Epoch: 21 September)

Date Brightness Start Highest point End Pass type
(mag) Time Alt. Az. Time Alt. Az. Time Alt. Az.
21 Sep ? 00:36:22 10° NNE 00:40:59 48° E 00:45:33 10° S visible
21 Sep ? 02:15:05 10° NNW 02:18:23 19° WNW 02:21:40 10° WSW visible
21 Sep ? 23:44:28 10° ENE 23:46:53 14° E 23:49:19 10° ESE visible
22 Sep ? 01:20:22 10° N 01:25:04 61° WNW 01:29:44 10° SSW visible
23 Sep ? 00:26:54 10° NNE 00:31:20 38° E 00:35:44 10° SSE visible
23 Sep ? 02:05:10 10° NNW 02:08:53 23° WNW 02:12:35 10° WSW visible
24 Sep ? 01:10:44 10° N 01:15:30 77° WNW 01:20:14 10° SSW visible
24 Sep ? 10:41:50 10° E 10:44:21 14° ENE 10:46:54 10° NNE visible
25 Sep ? 00:17:29 10° NE 00:21:41 30° E 00:25:50 10° SSE visible
25 Sep ? 01:55:19 10° N 01:59:22 28° WNW 02:03:24 10° SW visible
26 Sep ? 01:01:07 10° NNE 01:05:54 85° ESE 01:10:38 10° SSW visible
26 Sep ? 02:41:31 10° NW 02:42:58 11° WNW 02:44:24 10° WNW visible
26 Sep ? 10:33:18 10° E 10:34:54 12° ENE 10:36:29 10° NE visible
27 Sep ? 00:08:09 10° NE 00:12:00 24° E 00:15:50 10° SSE visible
27 Sep ? 01:45:32 10° N 01:49:50 35° WNW 01:54:08 10° SW visible
28 Sep ? 00:51:33 10° NNE 00:56:17 67° ESE 01:01:00 10° S visible
28 Sep ? 02:31:03 10° NNW 02:33:30 14° WNW 02:35:56 10° W visible
28 Sep ? 23:58:55 10° NE 00:02:19 19° E 00:05:42 10° SE visible
29 Sep ? 01:35:47 10° N 01:40:18 44° WNW 01:44:47 10° SW visible
30 Sep ? 00:42:00 10° NNE 00:46:40 53° E 00:51:17 10° S visible
30 Sep ? 02:20:56 10° NNW 02:24:00 17° WNW 02:27:05 10° WSW visible
30 Sep ? 23:49:51 10° NE 23:52:37 15° E 23:55:22 10° SE visible
